Regional Weather Roundup
Issued by NWS Newport/Morehead, NC

Current Version | Previous Version | Graphics & Text | Print | Product List | Glossary Off
Versions: 1 2 3 4 5 6 7 8 9 10 11 12 13 14 15 16 17 18 19 20 21 22 23 24 25 26 27 28 29 30 31 32 33 34 35 36 37 38 39 40 41 42 43 44 45 46 47 48 49 50

000
ASUS42 KMHX 230513
RWRMHX
WEATHER ROUNDUP FOR EASTERN NORTH CAROLINA
NATIONAL WEATHER SERVICE NEWPORT/MOREHEAD CITY NC
100 AM EDT FRI JUN 23 2017

NOTE: "FAIR" INDICATES FEW OR NO CLOUDS BELOW 12,000 FEET
WITH NO SIGNIFICANT WEATHER AND/OR OBSTRUCTIONS TO VISIBILITY

NCZ015>017-031-032-045>047-102-103-230600-
NORTH COAST

CITY           SKY/WX    TMP DP  RH WIND       PRES   REMARKS
EDENTON        CLOUDY    80  74  80 CALM      30.05S
ELIZABETH CITY CLOUDY    78  73  84 SW10      30.02F
KITTY HAWK     PTCLDY    78  71  79 CALM      30.02F
MANTEO         CLOUDY    78  74  87 W9        30.04F

$$

NCZ045>047-081-094-103-104-230600-
CENTRAL COAST

CITY           SKY/WX    TMP DP  RH WIND       PRES   REMARKS
FRISCO         CLOUDY    80  76  87 SW9       30.05F

$$

NCZ095-097-098-100-101-230600-
SOUTHERN COAST

CITY           SKY/WX    TMP DP  RH WIND       PRES   REMARKS
BEAUFORT       MOCLDY    80  79  96 SW9       30.06F
CEDAR ISLAND   NOT AVBL
JACKSONVILLE   NOT AVBL
PINEY ISLAND   CLOUDY   N/A N/A N/A SW7       30.05F
WILMINGTON     CLOUDY    78  77  96 S7        30.07S


$$

NCZ011>013-027>030-043-044-078>080-089-090>093-098-230600-
COASTAL PLAIN

CITY           SKY/WX    TMP DP  RH WIND       PRES   REMARKS
AHOSKIE          N/A     73  71  93 CALM      30.04S
CLINTON        MOCLDY    74  74 100 CALM      30.06F FOG
ELIZABETHTOWN  NOT AVBL
GOLDSBORO      MOCLDY    75  75 100 CALM      30.04F
GREENVILLE     CLOUDY    77  75  94 SW7       30.07S
HAVELOCK       MOCLDY    77  74  90 SW6       30.07F
KENANSVILLE    CLOUDY    73  72  94 CALM      30.07S FOG
KINSTON        PTCLDY    76  74  93 SW6       30.07F
NEW BERN       MOCLDY    76  76 100 SW5       30.07F
RICHLANDS      CLOUDY    74  74 100 S3        30.07F
ROCKY MOUNT    CLOUDY    75  73  93 SW5       30.05F
WASHINGTON     CLOUDY    76  74  92 SW7       30.05F
WHITEVILLE     CLOUDY    77  76  96 S5        30.07F

$$

AMZ130-135-150-152-154-156-158-170-250-252-270-ANZ085-086-088-633-658-670-230600-
MARINE OBSERVATIONS

STATION/POSITION TIME  TEMP    WIND        PRES    WAVE   SWELL
                       AIR SEA DIR/SP/G            HT/PER HT/PER
                 (UTC) (F)     (DEG/KT/KT) (MB)    (FT/S) (FT/S)
CHESAPEAKE LIGHT NOT AVBL
64 E VA BEACH    0450   74 71  240/ 10/ 10 1016.6    3/ 9   2/ 9
DUCK             0442   79 65  240/  9/ 12 1016.3
2 E DUCK         NOT AVBL
OREGON INLET     0442   79 74  220/ 12/ 15 1017.1
13E OREGON INLT  0448      72                N/A     3/ 8   2/ 8
HATTERAS CG      0442   78 79  230/  6/ 10 1017.4
DIAMOND BUOY     0450   80 80  240/ 14/ 16 1017.5    3/ 9   2/ 9
CAPE LOOKOUT     0500   79     230/  7/ 10 1017.9
BEAUFORT LAB     0442   79 78  230/  5/  9 1017.5
30 SE NEW RVR IN 0408   80 81  230/ 12/ 16 1018.8
30 SE NEW RVR IN 0443      81                N/A     3/ 8
27 SE WRIGHTSVLE 0408   79 80  200/ 10/ 12 1018.4
5 SE WRIGHTSVLE  0408   80 79  220/ 10/ 14 1018.5
225 S CAPE HAT   0450   80 82  200/ 12/ 14 1020.3    4/ 9   3/ 9
41 SE CHARLESTON 0450   81 81  190/ 12/ 16 1018.5    3/ 8   3/ 8

$$




USA.gov is the U.S. government's official web portal to all federal, state and local government web resources and services.